Tracking 20719 objects as of 24-May-2020
HD Live streaming from Space Station
objects crossing your sky now

STTW-T2

Track STTW-T2 now!
STTW-T2 is classified as:


NORAD ID: 14899
Int'l Code: 1984-035A
Perigee: 35,781.5 km
Apogee: 35,862.5 km
Inclination: 13.1 °
Period: 1,437.5 minutes
Semi major axis: 42193 km
RCS: 3.981 m2 (large)
Launch date: April 8, 1984
Source: People's Republic of China (PRC)
Launch site: Xichang Space Center, China (XSC)
aabbcc
Your satellite tracking list
Your tracking list is empty




NASA's NSSDC Master Catalog

Two Line Element Set (TLE):
1 14899U 84035A   20145.48938340 -.00000278  00000-0  00000+0 0  9999
2 14899  13.0978 335.5264 0009596 109.6671  71.2982  1.00170969107884
Source of the keplerian elements: AFSPC